Location: Lafig�re
(44.4503°N, 4.0357°E)
Time: 00:57:53
(UTC+00:00)

Transit 4A - Pass Details

Date: 24 January 2021
Orbit: 866 x 979 km, 66.8° (Epoch: 24 February)

Event Time Altitude Azimuth Distance (km) Brightness Sun altitude
Rises 17:38:35 0° 179° (S) 3,654 11.2 -10.2°
Reaches altitude 10° 17:41:23 10° 169° (S) 2,717 10.4 -10.7°
Maximum altitude 17:46:55 32° 109° (ESE) 1,612 8.7 -11.6°
Enters shadow 17:51:34 14° 54° (NE) 2,451 9.5 -12.4°
Drops below altitude 10° 17:52:27 10° 49° (NE) 2,725 - -12.6°
Sets 17:55:15 0° 40° (NE) 3,667 - -13.1°
